Time,TemperatureF,DewpointF,PressureIn,WindDirection,WindDirectionDegrees,WindSpeedMPH,WindSpeedGustMPH,Humidity,HourlyPrecipIn,Conditions,Clouds,dailyrainin,SoftwareType,DateUTC
2013-01-12 00:03:00,48.0,44.0,29.87,SW,225,2.0,2.0,87,0.00,,,0.00,,2013-01-12 05:03:00,
2013-01-12 00:12:00,48.0,44.0,29.87,SW,225,2.0,2.0,87,0.00,,,0.00,,2013-01-12 05:12:00,
2013-01-12 00:22:00,47.0,43.0,29.87,West,270,0.0,0.0,87,0.00,,,0.00,,2013-01-12 05:22:00,
2013-01-12 00:32:00,47.0,43.0,29.87,SW,225,1.0,3.0,87,0.00,,,0.00,,2013-01-12 05:32:00,
2013-01-12 00:42:00,47.0,43.0,29.87,SW,225,1.0,3.0,87,0.00,,,0.00,,2013-01-12 05:42:00,
2013-01-12 00:53:00,47.0,43.0,29.88,SW,225,0.0,0.0,87,0.00,,,0.00,,2013-01-12 05:53:00,
2013-01-12 01:02:00,47.0,43.0,29.87,SW,225,0.0,0.0,87,0.00,,,0.00,,2013-01-12 06:02:00,
2013-01-12 01:12:00,47.0,43.0,29.87,SW,225,0.0,0.0,87,0.00,,,0.00,,2013-01-12 06:12:00,
2013-01-12 01:22:00,46.0,42.0,29.87,SW,225,0.0,0.0,87,0.00,,,0.00,,2013-01-12 06:22:00,
2013-01-12 01:33:00,46.0,42.0,29.87,SW,225,0.0,0.0,87,0.00,,,0.00,,2013-01-12 06:33:00,
2013-01-12 01:42:00,46.0,42.0,29.87,SW,225,0.0,0.0,87,0.00,,,0.00,,2013-01-12 06:42:00,
2013-01-12 01:53:00,45.0,42.0,29.87,SW,225,0.0,0.0,88,0.00,,,0.00,,2013-01-12 06:53:00,
2013-01-12 02:02:00,45.0,42.0,29.87,SW,225,0.0,0.0,88,0.00,,,0.00,,2013-01-12 07:02:00,
2013-01-12 02:12:00,45.0,42.0,29.89,SW,225,0.0,0.0,88,0.00,,,0.00,,2013-01-12 07:12:00,
2013-01-12 02:22:00,45.0,42.0,29.89,SW,225,0.0,0.0,88,0.00,,,0.00,,2013-01-12 07:22:00,
2013-01-12 02:32:00,44.0,40.0,29.89,SW,225,0.0,0.0,87,0.00,,,0.00,,2013-01-12 07:32:00,
2013-01-12 02:42:00,44.0,40.0,29.89,SW,225,0.0,0.0,87,0.00,,,0.00,,2013-01-12 07:42:00,
2013-01-12 02:53:00,44.0,40.0,29.89,SW,225,0.0,0.0,87,0.00,,,0.00,,2013-01-12 07:53:00,
2013-01-12 03:02:00,44.0,40.0,29.90,SW,225,0.0,0.0,87,0.00,,,0.00,,2013-01-12 08:02:00,
2013-01-12 03:12:00,44.0,40.0,29.90,SW,225,0.0,0.0,87,0.00,,,0.00,,2013-01-12 08:12:00,
2013-01-12 03:22:00,43.0,39.0,29.90,SW,225,0.0,0.0,87,0.00,,,0.00,,2013-01-12 08:22:00,
2013-01-12 03:32:00,43.0,40.0,29.90,SW,225,0.0,0.0,88,0.00,,,0.00,,2013-01-12 08:32:00,
2013-01-12 03:42:00,43.0,40.0,29.90,SW,225,0.0,0.0,88,0.00,,,0.00,,2013-01-12 08:42:00,
2013-01-12 03:52:00,42.0,39.0,29.90,SW,225,0.0,0.0,88,0.00,,,0.00,,2013-01-12 08:52:00,
2013-01-12 04:02:00,42.0,38.0,29.90,SW,225,0.0,0.0,87,0.00,,,0.00,,2013-01-12 09:02:00,
2013-01-12 04:12:00,42.0,38.0,29.90,SW,225,0.0,0.0,87,0.00,,,0.00,,2013-01-12 09:12:00,
2013-01-12 04:22:00,42.0,39.0,29.90,SW,225,0.0,0.0,88,0.00,,,0.00,,2013-01-12 09:22:00,
2013-01-12 04:32:00,42.0,39.0,29.90,SW,225,0.0,0.0,88,0.00,,,0.00,,2013-01-12 09:32:00,
2013-01-12 04:42:00,42.0,39.0,29.90,SW,225,0.0,0.0,88,0.00,,,0.00,,2013-01-12 09:42:00,
2013-01-12 04:53:00,41.0,38.0,29.88,SE,135,0.0,0.0,88,0.00,,,0.00,,2013-01-12 09:53:00,
2013-01-12 05:02:00,41.0,38.0,29.88,ESE,112,0.0,0.0,88,0.00,,,0.00,,2013-01-12 10:02:00,
2013-01-12 05:12:00,41.0,38.0,29.88,ESE,112,0.0,0.0,88,0.00,,,0.00,,2013-01-12 10:12:00,
2013-01-12 05:22:00,41.0,38.0,29.88,ESE,112,0.0,0.0,88,0.00,,,0.00,,2013-01-12 10:22:00,
2013-01-12 05:32:00,41.0,38.0,29.88,ESE,112,0.0,0.0,88,0.00,,,0.00,,2013-01-12 10:32:00,
2013-01-12 05:42:00,41.0,38.0,29.88,ESE,112,0.0,0.0,88,0.00,,,0.00,,2013-01-12 10:42:00,
2013-01-12 05:52:00,41.0,38.0,29.88,ESE,112,0.0,0.0,88,0.00,,,0.00,,2013-01-12 10:52:00,
2013-01-12 06:02:00,42.0,39.0,29.89,ESE,112,0.0,0.0,89,0.00,,,0.00,,2013-01-12 11:02:00,
2013-01-12 06:12:00,42.0,39.0,29.90,ESE,112,0.0,0.0,89,0.00,,,0.00,,2013-01-12 11:12:00,
2013-01-12 06:22:00,42.0,39.0,29.90,ESE,112,0.0,0.0,89,0.00,,,0.00,,2013-01-12 11:22:00,
2013-01-12 06:33:00,42.0,39.0,29.90,ESE,112,0.0,0.0,89,0.00,,,0.00,,2013-01-12 11:33:00,
2013-01-12 06:42:00,42.0,39.0,29.90,ESE,112,0.0,0.0,89,0.00,,,0.00,,2013-01-12 11:42:00,
2013-01-12 06:52:00,42.0,39.0,29.90,ESE,112,0.0,0.0,89,0.00,,,0.00,,2013-01-12 11:52:00,
2013-01-12 07:03:00,42.0,39.0,29.90,ESE,112,0.0,0.0,89,0.00,,,0.00,,2013-01-12 12:03:00,
2013-01-12 07:12:00,42.0,39.0,29.90,ESE,112,0.0,0.0,89,0.00,,,0.00,,2013-01-12 12:12:00,
2013-01-12 07:22:00,42.0,39.0,29.92,ESE,112,0.0,0.0,90,0.00,,,0.00,,2013-01-12 12:22:00,
2013-01-12 07:33:00,42.0,39.0,29.92,ESE,112,0.0,0.0,90,0.00,,,0.00,,2013-01-12 12:33:00,
2013-01-12 07:42:00,42.0,39.0,29.92,ESE,112,0.0,0.0,90,0.00,,,0.00,,2013-01-12 12:42:00,
2013-01-12 07:52:00,42.0,39.0,29.93,ESE,112,0.0,0.0,90,0.00,,,0.00,,2013-01-12 12:52:00,
2013-01-12 08:02:00,43.0,40.0,29.94,ESE,112,0.0,0.0,90,0.00,,,0.00,,2013-01-12 13:02:00,
2013-01-12 08:12:00,43.0,40.0,29.94,ESE,112,0.0,0.0,90,0.00,,,0.00,,2013-01-12 13:12:00,
2013-01-12 08:23:00,43.0,40.0,29.94,ESE,112,0.0,0.0,90,0.00,,,0.00,,2013-01-12 13:23:00,
2013-01-12 08:33:00,43.0,40.0,29.94,ESE,112,0.0,0.0,90,0.00,,,0.00,,2013-01-12 13:33:00,
2013-01-12 08:42:00,43.0,40.0,29.94,ESE,112,0.0,0.0,90,0.00,,,0.00,,2013-01-12 13:42:00,
2013-01-12 08:53:00,43.0,40.0,29.95,ESE,112,0.0,0.0,90,0.00,,,0.00,,2013-01-12 13:53:00,
2013-01-12 09:02:00,43.0,40.0,29.96,ESE,112,0.0,0.0,90,0.00,,,0.00,,2013-01-12 14:02:00,
2013-01-12 09:12:00,43.0,40.0,29.96,ESE,112,0.0,0.0,90,0.00,,,0.00,,2013-01-12 14:12:00,
2013-01-12 09:22:00,43.0,40.0,29.96,ESE,112,0.0,0.0,90,0.00,,,0.00,,2013-01-12 14:22:00,
2013-01-12 09:33:00,44.0,42.0,29.97,SE,135,0.0,0.0,91,0.00,,,0.00,,2013-01-12 14:33:00,
2013-01-12 09:43:00,44.0,42.0,29.97,SE,135,0.0,0.0,91,0.00,,,0.00,,2013-01-12 14:43:00,
2013-01-12 09:53:00,46.0,44.0,29.97,SE,135,0.0,0.0,91,0.00,,,0.00,,2013-01-12 14:53:00,
2013-01-12 10:03:00,50.0,47.0,29.97,SSE,157,1.0,1.0,91,0.00,,,0.00,,2013-01-12 15:03:00,
2013-01-12 10:12:00,51.0,48.0,29.97,SE,135,0.0,1.0,91,0.00,,,0.00,,2013-01-12 15:12:00,
2013-01-12 10:22:00,51.0,48.0,29.97,SE,135,0.0,1.0,91,0.00,,,0.00,,2013-01-12 15:22:00,
2013-01-12 10:33:00,52.0,49.0,29.97,South,180,0.0,0.0,90,0.00,,,0.00,,2013-01-12 15:33:00,
2013-01-12 10:43:00,52.0,49.0,29.97,South,180,0.0,0.0,90,0.00,,,0.00,,2013-01-12 15:43:00,
2013-01-12 10:53:00,53.0,50.0,29.97,SSW,202,0.0,0.0,90,0.00,,,0.00,,2013-01-12 15:53:00,
2013-01-12 11:03:00,53.0,50.0,29.97,SW,214,3.0,3.0,89,0.00,,,0.00,,2013-01-12 16:03:00,
2013-01-12 11:12:00,53.0,50.0,29.97,SW,214,3.0,3.0,89,0.00,,,0.00,,2013-01-12 16:12:00,
2013-01-12 11:23:00,54.0,51.0,29.98,SSW,202,3.0,5.0,89,0.00,,,0.00,,2013-01-12 16:23:00,
2013-01-12 11:33:00,53.0,50.0,29.98,West,270,1.0,2.0,88,0.00,,,0.00,,2013-01-12 16:33:00,
2013-01-12 11:42:00,53.0,50.0,29.99,SW,222,2.0,3.0,88,0.00,,,0.00,,2013-01-12 16:42:00,
2013-01-12 11:53:00,53.0,50.0,29.99,SW,222,2.0,3.0,88,0.00,,,0.00,,2013-01-12 16:53:00,
2013-01-12 12:02:00,53.0,49.0,29.97,SSW,209,2.0,2.0,87,0.00,,,0.00,,2013-01-12 17:02:00,
2013-01-12 12:12:00,53.0,49.0,29.97,SSW,209,2.0,2.0,87,0.00,,,0.00,,2013-01-12 17:12:00,
2013-01-12 12:23:00,53.0,49.0,29.97,SSW,203,3.0,3.0,86,0.00,,,0.00,,2013-01-12 17:23:00,
2013-01-12 12:33:00,53.0,49.0,29.96,WSW,242,5.0,7.0,85,0.00,,,0.00,,2013-01-12 17:33:00,
2013-01-12 12:43:00,53.0,49.0,29.96,WSW,242,5.0,7.0,85,0.00,,,0.00,,2013-01-12 17:43:00,
2013-01-12 12:53:00,53.0,48.0,29.96,SW,226,5.0,7.0,84,0.00,,,0.00,,2013-01-12 17:53:00,
2013-01-12 13:03:00,53.0,48.0,29.97,SW,224,1.0,6.0,82,0.00,,,0.00,,2013-01-12 18:03:00,
2013-01-12 13:12:00,53.0,48.0,29.97,SW,224,1.0,6.0,82,0.00,,,0.00,,2013-01-12 18:12:00,
2013-01-12 13:23:00,52.0,47.0,29.97,West,270,1.0,2.0,82,0.00,,,0.00,,2013-01-12 18:23:00,
2013-01-12 13:33:00,52.0,46.0,29.97,WNW,292,3.0,4.0,81,0.00,,,0.00,,2013-01-12 18:33:00,
2013-01-12 13:42:00,52.0,46.0,29.97,WNW,292,3.0,4.0,81,0.00,,,0.00,,2013-01-12 18:42:00,
2013-01-12 13:52:00,52.0,46.0,29.96,SW,225,1.0,7.0,80,0.00,,,0.00,,2013-01-12 18:52:00,
2013-01-12 14:03:00,53.0,47.0,29.97,SSW,202,6.0,7.0,80,0.00,,,0.00,,2013-01-12 19:03:00,
2013-01-12 14:12:00,53.0,47.0,29.97,SSW,202,6.0,7.0,80,0.00,,,0.00,,2013-01-12 19:12:00,
2013-01-12 14:23:00,53.0,47.0,29.96,West,270,1.0,7.0,79,0.00,,,0.00,,2013-01-12 19:23:00,
2013-01-12 14:33:00,53.0,46.0,29.96,SW,225,0.0,3.0,77,0.00,,,0.00,,2013-01-12 19:33:00,
2013-01-12 14:43:00,53.0,46.0,29.96,SW,225,0.0,3.0,77,0.00,,,0.00,,2013-01-12 19:43:00,
2013-01-12 14:52:00,54.0,47.0,29.95,SW,225,4.0,4.0,77,0.00,,,0.00,,2013-01-12 19:52:00,
2013-01-12 15:03:00,54.0,47.0,29.95,SE,135,0.0,0.0,76,0.00,,,0.00,,2013-01-12 20:03:00,
2013-01-12 15:12:00,54.0,47.0,29.95,SW,225,0.0,1.0,76,0.00,,,0.00,,2013-01-12 20:12:00,
2013-01-12 15:22:00,54.0,47.0,29.95,SW,225,0.0,1.0,76,0.00,,,0.00,,2013-01-12 20:22:00,
2013-01-12 15:33:00,55.0,48.0,29.95,SW,225,5.0,5.0,76,0.00,,,0.00,,2013-01-12 20:33:00,
2013-01-12 15:42:00,55.0,48.0,29.95,SW,225,5.0,5.0,76,0.00,,,0.00,,2013-01-12 20:42:00,
2013-01-12 15:53:00,54.0,47.0,29.95,SW,225,0.0,2.0,77,0.00,,,0.00,,2013-01-12 20:53:00,
2013-01-12 16:03:00,54.0,47.0,29.94,SSW,202,0.0,0.0,77,0.00,,,0.00,,2013-01-12 21:03:00,
2013-01-12 16:12:00,55.0,48.0,29.96,SW,225,1.0,3.0,78,0.00,,,0.00,,2013-01-12 21:12:00,
2013-01-12 16:22:00,55.0,48.0,29.96,SW,225,1.0,3.0,78,0.00,,,0.00,,2013-01-12 21:22:00,
2013-01-12 16:33:00,56.0,49.0,29.96,WSW,247,0.0,3.0,78,0.00,,,0.00,,2013-01-12 21:33:00,
2013-01-12 16:43:00,56.0,49.0,29.96,WSW,247,0.0,3.0,78,0.00,,,0.00,,2013-01-12 21:43:00,
2013-01-12 16:53:00,57.0,51.0,29.95,SE,135,0.0,0.0,79,0.00,,,0.00,,2013-01-12 21:53:00,
2013-01-12 17:03:00,57.0,51.0,29.95,SE,135,0.0,0.0,79,0.00,,,0.00,,2013-01-12 22:03:00,
2013-01-12 17:12:00,57.0,51.0,29.95,SE,135,0.0,0.0,79,0.00,,,0.00,,2013-01-12 22:12:00,
2013-01-12 17:23:00,58.0,52.0,29.95,SE,135,0.0,0.0,79,0.00,,,0.00,,2013-01-12 22:23:00,
2013-01-12 17:33:00,57.0,51.0,29.94,SE,135,0.0,0.0,80,0.00,,,0.00,,2013-01-12 22:33:00,
2013-01-12 17:43:00,57.0,51.0,29.94,SE,135,0.0,0.0,80,0.00,,,0.00,,2013-01-12 22:43:00,
2013-01-12 17:53:00,56.0,50.0,29.92,SE,135,0.0,0.0,80,0.00,,,0.00,,2013-01-12 22:53:00,
2013-01-12 18:03:00,56.0,50.0,29.92,SE,135,0.0,0.0,80,0.00,,,0.00,,2013-01-12 23:03:00,
2013-01-12 18:12:00,55.0,49.0,29.93,SE,135,0.0,0.0,80,0.00,,,0.00,,2013-01-12 23:12:00,
2013-01-12 18:22:00,55.0,49.0,29.93,SE,135,0.0,0.0,80,0.00,,,0.00,,2013-01-12 23:22:00,
2013-01-12 18:33:00,55.0,49.0,29.92,SE,135,0.0,0.0,81,0.00,,,0.00,,2013-01-12 23:33:00,
2013-01-12 18:43:00,55.0,49.0,29.92,SE,135,0.0,0.0,81,0.00,,,0.00,,2013-01-12 23:43:00,
2013-01-12 18:53:00,54.0,48.0,29.93,SE,135,0.0,0.0,80,0.00,,,0.00,,2013-01-12 23:53:00,
2013-01-12 19:03:00,54.0,48.0,29.93,SE,135,0.0,0.0,81,0.00,,,0.00,,2013-01-13 00:03:00,
2013-01-12 19:12:00,54.0,48.0,29.93,SE,135,0.0,0.0,81,0.00,,,0.00,,2013-01-13 00:12:00,
2013-01-12 19:23:00,53.0,47.0,29.92,SE,135,0.0,0.0,81,0.00,,,0.00,,2013-01-13 00:23:00,
2013-01-12 19:33:00,53.0,47.0,29.92,SE,135,0.0,0.0,81,0.00,,,0.00,,2013-01-13 00:33:00,
2013-01-12 19:43:00,53.0,47.0,29.92,SE,135,0.0,0.0,81,0.00,,,0.00,,2013-01-13 00:43:00,
2013-01-12 19:53:00,53.0,48.0,29.91,SE,135,0.0,0.0,82,0.00,,,0.00,,2013-01-13 00:53:00,
2013-01-12 20:03:00,53.0,48.0,29.90,SE,135,0.0,0.0,82,0.00,,,0.00,,2013-01-13 01:03:00,
2013-01-12 20:12:00,53.0,48.0,29.90,SE,135,0.0,0.0,82,0.00,,,0.00,,2013-01-13 01:12:00,
2013-01-12 20:23:00,52.0,47.0,29.91,SE,135,0.0,0.0,83,0.00,,,0.00,,2013-01-13 01:23:00,
2013-01-12 20:33:00,52.0,47.0,29.91,SE,135,0.0,0.0,83,0.00,,,0.00,,2013-01-13 01:33:00,
2013-01-12 20:43:00,52.0,47.0,29.91,SE,135,0.0,0.0,83,0.00,,,0.00,,2013-01-13 01:43:00,
2013-01-12 20:53:00,52.0,47.0,29.90,SE,135,0.0,0.0,83,0.00,,,0.00,,2013-01-13 01:53:00,
2013-01-12 21:02:00,52.0,47.0,29.89,SE,135,0.0,0.0,83,0.00,,,0.00,,2013-01-13 02:02:00,
2013-01-12 21:12:00,52.0,47.0,29.89,SE,135,0.0,0.0,83,0.00,,,0.00,,2013-01-13 02:12:00,
2013-01-12 21:22:00,52.0,47.0,29.87,SE,135,0.0,0.0,84,0.00,,,0.00,,2013-01-13 02:22:00,
2013-01-12 21:33:00,52.0,47.0,29.86,SE,135,0.0,0.0,84,0.00,,,0.00,,2013-01-13 02:33:00,
2013-01-12 21:43:00,52.0,47.0,29.86,SE,135,0.0,0.0,84,0.00,,,0.00,,2013-01-13 02:43:00,
2013-01-12 21:53:00,51.0,46.0,29.82,ENE,67,0.0,0.0,84,0.00,,,0.00,,2013-01-13 02:53:00,
2013-01-12 22:02:00,51.0,47.0,29.81,ENE,67,0.0,1.0,85,0.00,,,0.00,,2013-01-13 03:02:00,
2013-01-12 22:12:00,51.0,47.0,29.81,ENE,67,0.0,1.0,85,0.00,,,0.00,,2013-01-13 03:12:00,
2013-01-12 22:22:00,51.0,47.0,29.82,ENE,67,0.0,0.0,86,0.00,,,0.00,,2013-01-13 03:22:00,
2013-01-12 22:33:00,51.0,47.0,29.82,ENE,67,0.0,0.0,86,0.00,,,0.00,,2013-01-13 03:33:00,
2013-01-12 22:43:00,51.0,47.0,29.82,ENE,67,0.0,0.0,86,0.00,,,0.00,,2013-01-13 03:43:00,
2013-01-12 22:53:00,51.0,47.0,29.79,ENE,67,0.0,0.0,86,0.00,,,0.00,,2013-01-13 03:53:00,
2013-01-12 23:02:00,51.0,47.0,29.81,ENE,67,0.0,0.0,86,0.00,,,0.00,,2013-01-13 04:02:00,
2013-01-12 23:12:00,51.0,47.0,29.81,ENE,67,0.0,0.0,86,0.00,,,0.00,,2013-01-13 04:12:00,
2013-01-12 23:22:00,51.0,47.0,29.80,ENE,67,0.0,0.0,86,0.00,,,0.00,,2013-01-13 04:22:00,
2013-01-12 23:33:00,51.0,47.0,29.81,ENE,67,0.0,0.0,86,0.00,,,0.00,,2013-01-13 04:33:00,
2013-01-12 23:42:00,51.0,47.0,29.81,ENE,67,0.0,0.0,86,0.00,,,0.00,,2013-01-13 04:42:00,
2013-01-12 23:53:00,51.0,47.0,29.78,ENE,67,0.0,1.0,87,0.00,,,0.00,,2013-01-13 04:53:00,